Regional Weather Roundup
Issued by NWS

Home | Current Version | Previous Version | Graphics & Text | Print | Product List | Glossary On
Versions: 1 2 3 4 5 6 7 8 9 10 11 12 13 14 15 16 17 18 19 20 21 22 23 24 25 26 27 28 29 30 31 32 33 34 35 36 37 38 39 40 41 42 43 44 45 46 47 48 49 50
000
ASUS45 KBOU 281307
RWRCO

WEATHER ROUNDUP FOR COLORADO
NATIONAL WEATHER SERVICE DENVER/BOULDER CO
600 AM MST SAT FEB 28 2015

NOTE: "FAIR" INDICATES FEW OR NO CLOUDS BELOW 12000 FEET WITH NO
SIGNIFICANT WEATHER AND/OR OBSTRUCTIONS TO VISIBILITY.

COZ001>005-013-030-031-281400-
...NORTHWEST COLORADO...

CITY           SKY/WX    TMP DP  RH WIND       PRES   REMARKS
CRAIG            N/A     19   9  65 MISG      29.79S
HAYDEN         PTCLDY    10   3  72 SE10      29.78S WCI  -3
MEEKER         CLEAR     11   6  81 CALM      29.78R
MOUNT WERNER   NOT AVBL
STEAMBOAT SPGS PTCLDY     4  -1  81 CALM      29.80S
WALDEN         CLOUDY    -4  -9  77 E3        29.77F
$$

COZ006>008-011-281400-
...WEST CENTRAL VALLEYS...

CITY           SKY/WX    TMP DP  RH WIND       PRES   REMARKS
GRAND JUNCTION PTCLDY    24  19  81 SE8       29.79R WCI  15
MONTROSE       MOCLDY    18  13  80 SE8       29.80S WCI   8
EAGLE          CLOUDY    19  14  79 NE3       29.83F
RIFLE          PTCLDY    18  13  80 NE3       29.82R
DELTA          MOCLDY    23  20  88 NE3       29.81F
NUCLA          MOCLDY    23  18  80 S3        29.79S
$$

COZ017>023-064>068-281400-
...SOUTHWEST COLORADO...

CITY           SKY/WX    TMP DP  RH WIND       PRES   REMARKS
DURANGO        LGT SNOW  25  23  92 E5        29.78R FOG     WCI  19
CORTEZ         LGT SNOW  29  27  92 VRB3      29.75R FOG
PAGOSA SPRINGS CLOUDY    24  23  99 CALM      29.78S
TELLURIDE      CLOUDY    20  10  65 E8        29.72F WCI  11
WOLF CREEK PAS LGT SNOW  10   9  92 SW12      29.74F VSB 3/4 WCI  -4
$$

COZ009-010-012-014-032>034-037-058>063-281400-
...CENTRAL COLORADO...

CITY           SKY/WX    TMP DP  RH WIND       PRES   REMARKS
ASPEN          PTCLDY     5   0  79 S6        29.75F WCI  -6
BUENA VISTA    PTCLDY     6   1  77 NW5       29.80S WCI  -2
COPPER MTN     PTCLDY     9  -4  56 SW5       29.68F WCI   0
BERTHOUD PASS  FAIR       1  -6  71 W12       29.68F WCI -15
COTTONWOOD PAS PTCLDY    14   9  79 CALM      29.73F
GUNNISON       CLOUDY    10   5  79 W7        29.83R WCI   0
KREMMLING      CLOUDY     9   1  72 CALM      29.83S
LEADVILLE      CLOUDY    -1  -4  87 CALM      29.72F FOG
SALIDA         CLOUDY    14   9  81 CALM      29.89R
SUNLIGHT       PTCLDY   N/A N/A N/A CALM        N/A
WILKERSON PASS PTCLDY     9   5  85 W6        29.71F WCI  -1
$$

COZ069>075-281400-
...SAN LUIS VALLEY/SANGRE DE CRISTO MOUNTAINS...

CITY           SKY/WX    TMP DP  RH WIND       PRES   REMARKS
ALAMOSA        CLOUDY    17  13  84 CALM      29.80S
LA VETA PASS   LGT SNOW  14  10  85 MISG      29.74S
SAGUACHE       FLURRIES  21  18  86 SE5       29.81R WCI  15
$$

COZ035-036-038>040-281400-
...NORTHERN COLORADO FRONT RANGE...

CITY           SKY/WX    TMP DP  RH WIND       PRES   REMARKS
DENVER INTL AP PTCLDY     4   0  83 W3        29.89R
DMNS CITY PARK   N/A      5   3  88 NW1G7     29.91R
AURORA         PTCLDY     4   0  86 S5        29.88S WCI  -6
FRONT RANGE AP NOT AVBL
ERIE MUNI ARPT LGT SNOW  -1  -3  87 CALM      29.94R
BOULDER MUN AP PTCLDY     5   3  92 NE3       29.93R
CENTENNIAL     MOCLDY     4   2  91 CALM      29.86R
BROOMFIELD     PTCLDY     7   3  85 NW8       29.89R WCI  -6
FORT COLLINS   CLEAR      7   1  78 CALM      29.94R
LONGMONT       LGT SNOW   8   5  88 CALM      29.96R
$$

COZ041-046-047-076>085-087-088-281400-
...PIKES PEAK/PALMER DIVIDE AND SOUTHERN FOOTHILLS...

CITY           SKY/WX    TMP DP  RH WIND       PRES   REMARKS
COLO. SPRINGS  MOCLDY    -1  -5  82 N6        29.85S WCI -13
A. F. ACADEMY  CLOUDY    -3  -8  80 N5        29.81S WCI -13
ELLICOTT       NOT AVBL
FALCON         MOCLDY    -1  -5  82 NW3       29.81S
FORT CARSON    PTCLDY    -2  -6  84 NW3       29.85F
LIMON          CLOUDY     6   4  91 S10       29.91S WCI  -9
MONUMENT HILL  MOCLDY     7   3  85 NW3       29.78S
TRINIDAD       CLOUDY    10   5  80 CALM      29.86F
$$

COZ042>045-048>051-090-091-281400-
...NORTHEAST COLORADO...

CITY           SKY/WX    TMP DP  RH WIND       PRES   REMARKS
GREELEY ARPT   PTCLDY     7  -4  61 CALM      29.95S
AKRON          CLEAR      4   2  91 S7        29.96R WCI  -8
BURLINGTON     CLOUDY     7   3  84 SE13      30.02S WCI  -9
WRAY           FLURRIES  14   9  83 SE8       30.08R WCI   2
STERLING       CLEAR      5   1  85 CALM      30.02R
HOLYOKE        NOT AVBL
FORT MORGAN    CLEAR      6   1  80 CALM      29.98S
$$

COZ086-089-092>099-281400-
...SOUTHEAST COLORADO...

CITY           SKY/WX    TMP DP  RH WIND       PRES   REMARKS
PUEBLO         MOCLDY     3  -1  83 N5        29.95S WCI  -6
LA JUNTA       PTCLDY     8   4  83 W9        30.00R WCI  -5
LAMAR          PTCLDY    13   8  81 NE6       30.00F WCI   4
SPRINGFIELD      N/A     10   7  87 S13       29.98S WCI  -5
$$


USA.gov is the U.S. government's official web portal to all federal, state and local government web resources and services.